SCP
0 0 0 0 0 0 0 0 0 0 0 0 0 0 0 0 0 0 0 0 0 0 0 0 0 0 0 0 0 0 0 0 0 0 0 0 0 0 0 0 0 0 0
0 0 0 0 0 0 0 0 0 0 0 0 0 0 0 0 0 0 0 0 0 0 0 0 0 0 0 0 0 0 0 0 0 0 0 0 0 0 0 0 0 0 0
0 0 0 0 0 0 1 1 1 1 1 1 0 0 0 0 0 0 0 0 0 0 0 0 0 0 0 0 0 0 0 0 0 0 0 0 0 0 0 0 0 0 0
0 0 0 1 1 1 1 1 1 1 1 1 1 1 1 0 0 0 0 0 0 0 0 0 0 0 0 0 0 0 0 0 0 0 0 0 0 0 0 0 0 0 0
0 0 0 1 1 1 1 1 1 1 1 1 1 1 1 1 0 0 0 0 0 0 0 0 0 0 0 0 0 0 0 0 0 0 0 0 0 0 0 0 0 0 0
0 0 0 1 1 1 1 1 1 1 1 1 1 1 1 1 1 0 0 0 0 0 0 0 0 0 0 0 0 0 0 0 0 0 0 0 0 0 0 0 0 0 0
0 0 0 1 1 1 1 1 1 1 1 1 1 1 1 1 1 1 0 0 0 0 0 0 0 0 0 0 0 0 0 0 0 0 0 0 0 0 0 0 0 0 0
0 0 0 0 1 1 1 1 1 1 1 1 1 1 1 1 1 1 1 0 0 0 0 0 0 0 0 0 0 0 0 0 0 0 0 0 0 0 0 0 0 0 0
0 0 0 0 0 1 1 1 1 1 1 1 1 1 1 1 1 1 1 1 1 0 0 0 0 0 0 0 0 0 0 0 0 0 0 0 0 0 0 0 0 0 0
0 0 0 0 0 0 0 1 1 1 1 1 1 1 1 1 1 1 1 1 1 0 0 0 0 0 0 0 0 0 0 0 0 0 0 0 0 0 0 0 0 0 0
1 1 0 0 0 0 0 1 1 1 1 1 1 1 1 1 1 1 1 1 1 1 0 0 0 0 0 0 0 0 0 0 0 0 0 0 0 0 0 0 0 0 0
1 1 1 1 1 1 1 1 1 1 1 1 1 1 1 1 1 1 1 1 1 1 1 1 0 0 0 0 0 0 0 0 0 0 0 0 0 0 0 0 0 0 0
1 1 1 1 1 1 1 1 1 1 1 1 1 1 1 1 1 1 1 1 1 1 1 1 0 0 0 0 0 0 0 0 0 0 0 0 0 0 0 0 0 0 0
1 1 1 1 1 1 1 1 1 1 1 1 1 1 1 1 1 1 1 1 1 1 1 1 1 0 0 0 0 0 0 0 0 0 0 0 0 0 0 0 0 0 0
1 1 1 1 1 1 1 1 1 1 1 1 1 1 1 1 1 1 1 1 1 1 1 1 1 1 1 0 0 0 0 0 0 0 0 0 0 0 0 0 0 0 0
1 1 1 1 1 1 1 1 1 1 1 1 1 1 1 1 1 1 1 1 1 1 1 1 1 1 1 1 1 0 0 0 0 0 0 0 0 0 0 0 0 0 0
1 1 1 1 1 1 1 1 1 1 1 1 1 1 1 1 1 2 2 1 1 1 1 1 1 1 1 1 1 1 1 1 1 0 0 0 0 0 0 0 0 0 0
1 1 1 1 1 1 1 1 1 1 1 1 1 2 2 1 2 2 2 2 2 2 1 1 1 1 1 1 1 1 1 1 1 0 0 0 0 0 0 0 0 0 0
1 1 1 1 1 1 1 1 1 1 1 1 2 2 2 2 2 2 2 2 2 2 2 2 1 1 1 1 1 1 1 1 1 0 0 0 0 0 0 0 0 0 0
1 1 1 1 1 1 1 1 1 1 1 1 2 2 2 1 1 2 2 2 2 2 2 1 1 1 1 1 1 1 0 0 0 0 0 0 0 0 0 0 0 0 0
1 1 1 1 1 1 1 1 1 1 1 1 1 1 1 1 1 1 2 2 1 1 1 1 1 1 1 1 1 0 0 0 0 0 0 0 0 0 0 0 0 0 0
1 1 1 1 1 1 1 1 1 1 1 1 1 1 1 1 1 1 1 1 1 1 1 1 1 1 1 1 1 1 0 0 0 0 0 0 0 0 0 0 0 0 0
0 0 1 1 1 1 1 1 1 1 1 1 1 1 1 1 1 1 1 1 1 1 1 1 1 1 1 1 1 1 0 0 0 0 0 0 0 0 0 0 0 0 0
0 0 0 1 1 1 1 1 1 1 1 1 1 1 1 1 1 1 1 1 1 1 1 1 1 1 1 1 1 1 1 0 0 0 0 0 0 0 0 0 0 0 0
0 0 0 0 0 1 1 1 1 1 1 1 1 1 1 1 1 1 1 1 1 1 1 1 1 1 1 1 1 1 0 0 0 0 0 0 0 0 0 0 0 0 0
0 0 0 0 0 0 1 1 1 1 1 1 1 1 1 1 1 1 1 1 1 1 1 1 1 1 1 1 0 0 0 0 0 0 0 0 0 0 0 0 0 0 0
Wind_Speed
13 18 18 14 13 13 15 16 16 16 16 16 16 16 16 16 15 14 14 13 12 11 11 10 10 10 11 11 12 12 13 13 13 12 12 12 11 12 11 10 9 12 12
17 19 18 14 14 14 15 17 16 16 16 16 16 15 15 15 14 13 13 12 11 11 10 10 10 11 11 11 12 12 13 13 12 12 12 12 11 10 10 6 6 11 11
19 20 19 15 15 15 16 17 16 17 16 16 15 15 15 14 13 13 12 11 11 10 10 10 10 11 11 11 12 12 12 12 11 11 11 10 11 9 9 8 11 12 10
19 19 18 17 15 15 16 17 17 17 17 16 15 15 15 14 13 12 12 11 10 10 10 10 11 11 11 11 11 11 11 11 10 10 9 8 9 10 9 9 10 10 9
18 18 18 17 15 15 16 17 17 17 17 16 16 15 15 14 13 12 12 12 11 10 10 10 10 11 11 11 10 10 10 10 9 10 5 7 8 10 9 9 9 9 8
18 18 19 16 16 15 16 16 17 17 16 16 15 15 14 13 12 12 12 11 11 11 10 10 10 10 10 10 10 9 9 9 11 6 6 6 8 10 9 8 9 9 8
17 17 19 15 15 15 16 16 16 16 15 15 14 14 13 13 12 11 11 11 11 11 10 10 10 10 10 10 9 9 8 8 8 6 6 5 9 11 9 8 8 8 8
16 17 18 16 16 15 15 15 14 14 14 14 14 13 13 12 11 11 11 11 11 10 11 11 10 10 9 8 8 8 8 9 7 5 5 5 11 9 9 8 8 8 7
15 16 16 16 15 15 13 14 14 13 13 13 13 13 13 12 12 12 11 11 11 10 11 11 10 10 9 8 7 7 6 7 7 5 5 5 10 9 8 8 8 8 7
14 14 15 15 15 15 14 14 14 13 12 13 13 13 13 13 12 11 11 10 10 11 11 11 10 10 8 7 7 6 6 8 7 5 4 7 10 9 8 8 8 8 8
12 12 13 14 14 13 14 14 14 13 11 12 12 13 13 12 12 11 11 11 11 10 10 10 10 9 9 8 7 6 7 7 5 3 2 10 8 8 8 8 8 7 7
13 12 12 12 13 12 10 11 10 11 11 11 10 12 11 8 7 8 12 11 11 10 11 10 9 10 10 9 10 9 7 7 4 4 5 9 7 7 7 7 7 6 6
12 11 10 10 10 10 8 9 7 6 8 10 9 10 7 6 6 6 6 9 10 11 10 11 11 10 9 6 6 8 6 5 3 3 6 9 6 6 7 7 6 6 5
9 9 8 9 9 9 8 7 7 6 6 6 7 9 7 5 5 5 5 7 7 7 7 8 7 8 7 7 7 7 7 5 3 1 5 9 7 6 7 7 7 6 6
6 6 7 7 7 6 6 5 6 6 6 6 6 7 7 6 6 6 6 5 7 6 7 7 7 7 7 7 7 6 5 4 3 3 4 9 7 6 6 7 7 7 7
4 4 5 6 6 6 5 5 5 6 6 6 6 8 9 7 6 6 6 6 6 6 6 6 7 7 6 5 5 4 4 3 3 3 3 7 9 8 8 8 8 8 8
3 3 4 5 5 5 6 6 4 5 5 5 5 7 8 8 7 6 6 6 6 6 6 6 6 6 6 5 5 4 2 1 2 2 2 3 6 9 9 9 9 9 9
2 2 2 3 4 5 5 4 4 4 5 4 4 5 7 8 7 7 6 6 6 5 5 6 6 6 5 5 4 3 3 3 3 3 3 3 3 5 9 11 11 10 11
3 3 2 2 3 4 5 4 4 3 4 4 4 4 5 7 7 7 6 6 6 6 6 6 6 5 6 5 4 4 3 3 3 3 4 4 4 5 7 11 13 12 12
4 4 3 2 1 2 3 3 3 4 4 4 4 4 5 5 7 6 6 7 7 6 6 6 6 6 5 5 5 4 3 2 3 3 3 4 5 6 7 7 8 10 13
6 4 3 2 2 1 1 2 3 3 3 3 3 4 5 5 6 6 5 5 6 7 8 8 7 8 7 7 6 4 4 3 3 3 3 4 6 6 6 6 6 6 8
6 5 4 3 2 1 0 1 2 2 2 3 2 2 3 4 4 4 5 4 5 5 8 9 8 6 6 7 6 6 4 3 2 3 3 4 5 5 6 7 7 6 6
6 5 4 4 3 2 2 1 1 1 3 3 3 2 2 2 3 3 4 4 5 5 6 7 8 9 7 7 6 5 6 5 4 3 3 4 4 4 5 6 7 7 7
6 5 4 4 3 3 2 1 2 3 3 3 2 2 2 1 2 3 4 4 5 5 6 7 8 7 9 8 6 4 2 4 6 5 3 3 4 5 5 5 6 6 6
7 6 5 4 4 3 2 1 3 4 2 1 1 2 1 0 1 2 3 2 3 3 4 6 6 7 7 8 6 5 4 4 4 5 6 5 4 3 4 4 5 5 5
7 6 5 5 5 4 3 2 2 2 1 1 2 2 1 1 0 0 1 1 1 2 3 4 5 7 6 7 6 5 5 5 5 5 6 7 6 4 4 3 4 4 4
Wind_Direction
149 142 142 144 140 140 143 146 147 146 147 148 149 148 147 145 143 140 137 135 132 128 126 123 121 122 123 123 123 122 122 123 123 124 123 121 119 119 118 128 142 111 110
144 142 144 144 141 140 142 144 145 145 146 149 149 149 148 147 146 144 142 139 136 132 128 125 124 123 124 124 125 127 128 129 131 131 132 128 124 121 123 123 66 103 118
142 142 148 144 142 139 140 142 143 144 145 147 149 149 149 148 147 146 144 142 139 135 131 129 128 127 128 129 131 133 134 137 139 144 163 145 127 129 127 114 100 116 119
143 147 151 144 143 140 140 141 142 144 145 147 148 148 149 149 148 148 147 145 141 137 134 134 133 132 132 135 138 139 141 140 144 174 183 132 133 131 135 127 125 125 123
145 148 141 148 145 142 141 142 143 145 146 147 147 148 149 150 150 149 150 148 144 140 138 137 136 137 139 141 143 144 145 146 161 211 132 126 124 135 142 137 136 132 130
147 146 144 153 147 145 144 144 144 145 146 148 149 150 150 150 150 151 152 151 147 144 143 143 141 142 145 145 147 148 149 156 196 163 127 144 132 142 152 150 145 141 139
147 145 147 154 150 149 149 148 147 148 148 149 149 150 150 150 151 153 155 154 152 152 151 148 148 149 149 151 154 155 160 186 225 136 147 154 123 142 161 162 157 153 153
146 145 146 154 156 155 154 153 151 151 151 151 150 151 151 151 152 154 156 156 157 156 155 153 153 154 153 155 159 163 173 215 210 154 170 143 119 156 168 169 168 168 169
149 147 153 159 161 162 159 158 157 156 155 154 154 154 156 156 157 160 159 160 162 161 160 159 159 159 158 158 159 164 183 234 246 169 175 135 136 171 177 176 177 180 181
153 153 158 164 164 168 168 167 165 163 161 159 160 161 161 162 165 165 168 163 165 164 165 165 165 164 162 162 165 170 190 229 229 177 169 130 149 181 181 180 186 190 193
157 158 164 166 168 175 171 165 172 170 168 168 170 168 173 180 176 177 177 159 171 171 171 170 170 168 169 169 173 183 212 227 191 181 151 118 160 186 186 185 191 197 202
164 168 171 172 171 177 169 166 180 181 174 191 179 178 194 186 187 185 142 166 179 178 177 177 176 179 203 187 178 198 219 220 202 182 133 132 167 187 186 184 188 191 195
165 171 175 176 179 180 174 176 184 188 177 195 186 186 195 186 190 188 167 175 186 188 190 176 189 202 206 204 197 203 220 219 210 197 133 142 167 181 178 171 170 172 174
164 173 177 176 180 189 186 185 188 193 183 193 183 194 188 196 201 196 197 190 189 196 196 193 204 200 207 205 216 217 212 223 206 177 124 136 154 164 166 162 158 159 160
164 174 178 184 180 194 197 202 199 202 194 195 188 196 200 199 206 200 205 202 207 200 193 205 208 195 201 207 216 215 224 224 210 182 134 133 141 149 149 146 144 145 143
157 171 172 187 186 197 203 214 216 213 202 202 197 199 205 209 208 208 208 206 211 209 208 205 203 196 205 202 208 206 218 206 191 175 154 129 126 128 129 130 130 132 130
145 155 171 184 190 198 210 216 222 228 215 216 208 206 210 215 210 213 211 209 213 210 208 211 209 203 197 189 184 179 183 185 156 146 139 137 129 118 115 118 118 119 121
91 123 157 178 182 198 217 226 228 229 226 226 219 217 219 220 213 217 217 215 210 207 205 205 208 203 195 186 173 164 149 138 128 131 131 129 124 125 116 109 109 110 112
59 88 123 166 186 198 206 220 235 237 238 235 227 226 222 223 219 219 221 216 212 209 206 208 198 195 186 173 158 137 125 126 122 120 114 109 108 115 116 110 105 104 108
53 61 80 103 115 199 195 201 224 232 232 231 232 234 230 226 223 223 226 218 212 212 207 205 192 186 177 157 140 115 99 101 112 111 115 110 110 112 113 115 113 101 98
44 45 51 45 45 43 190 213 227 232 234 233 234 236 230 231 227 223 227 215 213 212 207 201 192 181 171 155 136 122 94 76 86 93 103 113 106 102 105 107 105 107 104
37 31 29 27 22 7 340 257 249 259 251 244 240 233 238 233 233 229 229 228 218 216 206 201 191 182 176 173 163 155 154 145 102 84 101 116 112 112 106 99 99 99 102
27 23 20 14 8 357 343 268 239 235 238 228 221 221 241 243 239 247 239 238 228 222 211 202 194 190 185 186 187 177 175 175 139 113 97 96 108 112 106 101 100 99 99
23 21 21 17 17 8 348 307 255 247 247 251 244 223 208 233 253 252 248 239 228 219 215 209 204 200 189 187 191 204 190 148 155 145 131 108 102 101 104 109 105 100 100
19 18 20 18 19 11 351 318 264 253 250 248 222 200 194 171 248 242 244 242 233 223 220 216 208 209 200 193 183 175 162 151 154 152 154 150 124 102 104 109 107 105 104
21 19 18 16 16 7 355 335 295 274 245 232 218 194 189 155 80 309 219 224 242 241 227 220 208 209 205 197 186 178 172 168 176 160 152 155 142 122 107 104 117 120 120